Preview of NWS' New Version of Forecast
This preview is not operational and should not be used for support decisions.

Regional Weather Roundup (RWR)

Issued by National Weather Service (NWS)

                            
000
ASUS44 KMEG 182110
RWRTN 
TENNESSEE HOURLY STATE WEATHER ROUNDUP
NATIONAL WEATHER SERVICE MEMPHIS TN
300 PM CST MON FEB 18 2019

TNZ002-004-019-021-049-052-054-088>092-182200-
WEST TENNESSEE
  
CITY           SKY/WX    TMP DP  RH WIND       PRES   REMARKS
MEMPHIS INTL   CLOUDY    42  25  50 N14       30.37R                  
NWS MEMPHIS      N/A     41 N/A N/A MISG        N/A                   
JACKSON        FAIR      40  26  57 N13       30.39F WCI  32          
DYERSBURG      FAIR      39  25  57 NW10      30.42S WCI  32          
COVINGTON      SUNNY     39  27  60 N13       30.40R WCI  32          
UNION CITY     SUNNY     37  27  65 N13       30.41S WCI  29          
PARIS          MOSUNNY   39  25  56 NW8       30.39S WCI  34          
SELMER         SUNNY     41  25  52 N12       30.33S                  
SAVANNAH       SUNNY     43  28  56 N10G17    30.33F                  
$$

TNZ008-025-027-028-033-062-065-066-182200-
NORTH MIDDLE TENNESSEE
  
CITY           SKY/WX    TMP DP  RH WIND       PRES   REMARKS
NASHVILLE      PTSUNNY   40  23  50 NW9       30.39R WCI  34          
DICKSON        CLEAR     39  25  56 N10       30.36R WCI  32          
CLARKSVILLE    PTSUNNY   40  23  50 VRB6G16   30.40R                  
LEBANON        CLEAR     37  27  65 N12       30.37R WCI  30          
SMYRNA         FAIR      40  27  59 N16       30.39R WCI  31          
MURFREESBORO   CLEAR     41  27  56 N13       30.35R                  
COOKEVILLE     PTSUNNY   41  28  60 NW10G16   30.33R                  
LIVINGSTON     MOCLDY    34  25  69 N8        30.33R WCI  27          
GALLATIN       MOCLDY    39  25  56 N14       30.41S WCI  31          
CROSSVILLE     FAIR      40  24  53 VRB6      30.27R                  
ROCKWOOD       CLEAR     43  25  49 N8G15     30.26R                  
$$

TNZ061-075-076-078-094-096-097-182200-
SOUTH MIDDLE TENNESSEE
  
CITY           SKY/WX    TMP DP  RH WIND       PRES   REMARKS
LAWRENCEBURG   CLEAR     43  27  52 N14       30.30S                  
LEWISBURG      CLEAR     45  28  53 N9        30.34R                  
FAYETTEVILLE   SUNNY     43  32  65 N8        30.29R                  
TULLAHOMA      SUNNY     43  30  61 N12G17    30.30R                  
WINCHESTER     SUNNY     43  28  56 N13       30.29S                  
MCMINNVILLE    SUNNY     43  28  56 N9        30.32R                  
COLUMBIA       SUNNY     45  27  49 NW7       30.33S                  
SHELBYVILLE    SUNNY     43  30  61 N12       30.34R                  
$$

TNZ017-018-042-046-047-182200-
NORTHEAST TENNESSEE
  
CITY           SKY/WX    TMP DP  RH WIND       PRES   REMARKS
TRI CITIES     FAIR      50  32  50 W12G18    30.20R                  
ELIZABETHTON   FAIR      48  32  53 W16       30.19S                  
GREENEVILLE    CLEAR     46  32  57 W10       30.22R                  
$$

TNZ012-013-036-069-073-074-182200-
CENTRAL EAST TENNESSEE
  
CITY           SKY/WX    TMP DP  RH WIND       PRES   REMARKS
KNOXVILLE      CLOUDY    47  28  47 W8        30.26R                  
OAK RIDGE      FAIR      50  30  46 VRB5      30.28R                  
DOWNTOWN KNOXV SUNNY     48  32  53 W7        30.27R                  
GATLINBURG     SUNNY     50  28  43 W8        30.25R                  
MORRISTOWN     MOSUNNY   48  34  57 W9        30.23R                  
JACKSBORO      SUNNY     45  25  45 N10       30.31R                  
$$

TNZ083-085-099-182200-
SOUTHEAST TENNESSEE
  
CITY           SKY/WX    TMP DP  RH WIND       PRES   REMARKS
CHATTANOOGA    PTSUNNY   53  29  39 N9        30.25S                  
DAYTON         CLEAR     46  30  53 NW6G14    30.28S                  
$$

SKY/WX REPORTED AS FAIR MEANS FEW OR NO CLOUDS BELOW
12 THOUSAND FEET.